User: anonymous   Login
Location: Unspecified
(0.0000°N, 0.0000°E)
Time: 06:02:56
(UTC+00:00)
Language:

Chandra X-Ray Observatory - Orbit

View from above orbital plane
View from above orbital plane
View from above satellite
View from above satellite

Ground track
Ground track

The orbit data is extracted from the following two-line orbital elements,

1 25867U 99040B   22178.62379385  .00000241  00000-0  00000-0 0  9990
2 25867  45.0521 234.2995 8834830 234.6366 359.9891  0.37804917 11842
Epoch (UTC): 27 June 2022 14:58:15
Eccentricity: 0.8834830
inclination: 45.0521°
perigee height: 3035 km
apogee height: 145791 km
right ascension of ascending node: 234.2995°
argument of perigee: 234.6366°
revolutions per day: 0.37804917
mean anomaly at epoch: 359.9891°
orbit number at epoch: 1184

The dashed part of the orbit path shows where the satellite is in the earth's shadow,  

DLR